Flag for Japan Weather past 2 weeks in Suzuka, Japan

Now
53 °F

Cool.


Feels Like: 49 °F
Forecast: 54 / 63 °F
Wind: 9 mph from Northeast

Location: Tsu


UV Index: 0 (Low)

Visibility: N/A


Pressure: 30.15 "Hg

Humidity: 93%

Dew point: 50 °F

Location of SuzukaLocation

Historic Weather in Suzuka

°F

Suzuka temperature yesterday

Maximum temperature yesterday: 65 °F (at 1:00 PM)
Minimum temperature yesterday: 51 °F (at 11:00 PM)
Average temperature yesterday: 58 °F

Past Weeks' High & Low Weather Summary

 TemperatureHumidityPressure
High75 °F (Apr 17, 11:00 AM)93% (Apr 20, 7:00 PM)30.21 "Hg (Apr 20, 7:00 PM)
Low41 °F (Apr 7, 5:00 AM)10% (Apr 15, 3:00 PM)29.80 "Hg (Apr 6, 4:00 AM)
Average57 °F48%30.01 "Hg
* Reported Apr 5 7:00 PM — Apr 20 7:00 PM, Suzuka, Weather by CustomWeather, © 2014

Note: Actual official high and low records may vary slightly from our data, if they occured in-between our weather recording intervals... More about our weather records

Advertising

Historic Weather Conditions — Data for Previous 24 hours

 ConditionsComfort  
Time TempWeatherWind HumidityBarometerVisibility
7:00 PM
Apr 20
53 °FCool.12 mph93%30.15 "HgN/A
6:00 PM52 °FCool.12 mph91%30.16 "HgN/A
5:00 PM53 °FCool.12 mph83%30.14 "HgN/A
4:00 PM53 °FCool.8 mph84%30.14 "HgN/A
3:00 PM53 °FLight rain. Overcast.8 mph85%30.16 "Hg5 mi
2:00 PM53 °FCool.9 mph85%30.17 "HgN/A
1:00 PM52 °FCool.1 mph89%30.18 "HgN/A
12:00 PM51 °FCool.1 mph88%30.20 "HgN/A
11:00 AM51 °FCool.3 mph90%30.21 "HgN/A
10:00 AM50 °FCool.3 mph85%30.21 "HgN/A
9:00 AM51 °FLight rain. Overcast.2 mph70%30.18 "Hg6 mi
8:00 AM51 °FCool.1 mph70%30.17 "HgN/A
7:00 AM50 °FCool.3 mph67%30.18 "HgN/A
6:00 AM51 °FCool.2 mph59%30.16 "HgN/A
5:00 AM51 °FCool.2 mph58%30.16 "HgN/A
4:00 AM51 °FCool.2 mph56%30.14 "HgN/A
3:00 AM50 °FCool.1 mph57%30.14 "HgN/A
2:00 AM49 °FCool.2 mph63%30.16 "HgN/A
1:00 AM50 °FCool.5 mph59%30.14 "HgN/A
12:00 AM51 °FCool.3 mph56%30.15 "HgN/A
11:00 PM
Apr 19
51 °FCool.3 mph55%30.14 "HgN/A
10:00 PM52 °FCool.5 mph50%30.15 "HgN/A
9:00 PM52 °FOvercast.6 mph50%30.14 "Hg19 mi
Weather by CustomWeather, © 2014

See weather overview